www.pogodaiklimat.ru

Погода и климат >> Архив погоды >> Германия >> Аэропорт Франкфурт-Хан


ПОГОДА в Аэропорту Франкфурт-Хан

  • Прогноз погоды в Аэропорту Франкфурт-Хан
  • Монитор погоды в Аэропорту Франкфурт-Хан

АРХИВ ПОГОДЫ в Аэропорту Франкфурт-Хан

Время (UTC), дата Ветер
(напр.,м/с)
 
Видим.   Явления Облачность Т
(С)
Тd
(С)
f
(%)
Тe
(С)
Тes
(С)
Комфортность P
(гПа)
Po
(гПа)
Тmin
(С)
Tmax
(С)
R
(мм)
R24
(мм)
S
(см)
13 18.08 З 9-16
{17}
н/о 9/9 800 м
[]
+21.7 +16.4 72 +26 +26 душно 1007.0 950.7
14 18.08 ЮЗ 7-12
{14}
н/о 9/9 800 м
[]
+23.3 +16.9 67 +28 +29 душно 1006.5 950.5
15 18.08 З 8 н/о 9/9 1020 м
[]
+21.9 +15.7 68 +26 +26 душно 1007.1 950.8
16 18.08 З 7-10
{12}
н/о 9/9 900 м
[]
+21.2 +16.1 73 +25 +25 комфорт 1008.2 951.7
17 18.08 З 7-11
{14}
н/о 4/4 540 м
[]
+19.0 +15.5 80 +20 +20 1009.3 952.3
18 18.08 З 7 н/о 6/6 600 м
[]
+17.9 +15.0 83 +17 +17 1009.9 952.7 +16.2 +23.5
19 18.08 З 5-8
{10}
н/о 9/9 420 м
[]
+17.2 +15.0 87 +17 +17 1009.9 952.6
20 18.08 З 4-6
{9}
н/о 9/9 360 м
[]
+16.5 +14.3 87 +16 +16 1010.7 953.2
21 18.08 З 4 н/о 9/0
[]
+15.8 +13.6 87 +15 +15 1012.3 954.5
22 18.08 З 3-4
{6}
н/о 1/0
[]
+14.6 +13.3 92 +14 +14 1012.7 954.7
23 18.08 З 3-4
{4}
н/о 6/0
[]
+14.3 +13.4 94 +13 +13 1013.4 955.3
00 19.08 З 3-5
{10}
н/о 6/0
[]
+14.1 +13.2 94 +13 +13 1013.9 955.7
01 19.08 З 3-4
{6}
н/о 9/9 240 м
[]
+14.2 +13.4 95 +13 +13 1014.6 956.4
02 19.08 ЮЗ 2-3
{4}
н/о 10/10 210 м
[]
+14.1 +13.2 94 +14 +14 1015.0 956.7
03 19.08 ЮЗ 2 н/о 10/10 240 м
[]
+14.0 +13.1 94 +13 +13 1015.4 957.1
04 19.08 ЮЗ 2-4
{4}
н/о 3/3 1320 м
[]
+12.9 +12.3 96 +12 +12 1015.8 957.2
05 19.08 ЮЗ 3-4
{4}
н/о 6/6 1470 м
[]
+12.9 +12.5 97 +11 +11 1015.9 957.3
06 19.08 ЮЗ 3 н/о 6/6 1500 м
[]
+13.9 +12.3 90 +13 +13 1016.3 957.9 +12.4 +17.9
07 19.08 З 4-7
{7}
н/о ясно +15.5 +11.9 79 +15 +17 1016.6 958.5
08 19.08 З 3-5
{7}
н/о ясно +16.2 +10.5 69 +16 +21 1016.6 958.6
09 19.08 З 4 н/о 4/4 800 м
[]
+16.9 +10.7 67 +16 +20 1017.0 959.1
10 19.08 З 4-7
{9}
н/о 1/1 900 м
[]
+18.5 +10.8 61 +19 +26 1017.1 959.5
11 19.08 З 5-9
{10}
н/о 5/5 1020 м
[]
+19.2 +11.4 61 +20 +24 1017.1 959.6
12 19.08 З 4 н/о 8/8 1200 м
[]
+19.4 +10.6 57 +20 +22 1017.2 959.8
13 19.08 З 6-10
{10}
н/о 3/3 1470 м
[]
+19.5 +7.0 44 +20 +23 1017.5 960.0
14 19.08 З 6-9
{10}
н/о ясно +20.5 +8.5 46 +22 +25 комфорт 1017.3 960.0
15 19.08 З 6-9
{10}
н/о ясно +20.1 +8.1 46 +21 +23 комфорт 1017.4 960.0
16 19.08 З 4-7
{9}
н/о 3/3 1410 м
[]
+19.8 +9.3 51 +21 +23 комфорт 1017.7 960.3
17 19.08 З 4-6
{8}
н/о ясно +19.0 +8.8 52 +20 +21 1018.0 960.4
18 19.08 З 3 н/о 3/3 1500 м
[]
+17.8 +8.9 56 +18 +18 1018.3 960.5 +13.9 +20.7
19 19.08 З 1-2
{4}
н/о ясно +16.2 +8.9 62 +17 +17 1019.2 961.0
20 19.08 ЮЗ 3-4
{4}
н/о 1/0
[]
+14.9 +8.6 66 +14 +14 1020.0 961.5
21 19.08 З 2-3
{4}
н/о ясно +13.9 +8.6 70 +13 +13 1020.7 962.0
22 19.08 З 1-2
{4}
н/о ясно +13.2 +8.4 73 +13 +13 1021.2 962.3
23 19.08 ЮЗ 2-3
{4}
н/о ясно +12.5 +8.2 75 +12 +12 1021.8 962.7
00 20.08 З 2-3
{4}
н/о ясно +12.7 +8.3 75 +12 +12 1021.7 962.7
01 20.08 З 2-2
{3}
н/о ясно +12.5 +8.4 76 +12 +12 1021.6 962.5
02 20.08 З 1-2
{2}
н/о ясно +12.5 +8.5 77 +13 +13 1021.9 962.8
03 20.08 З 1-1
{3}
н/о ясно +12.7 +8.7 77 +13 +13 1021.8 962.8
04 20.08 Ю 1-1
{1}
н/о ясно +11.7 +8.3 80 +12 +12 1022.1 962.8
05 20.08 З 1-1
{2}
н/о ясно +11.7 +8.4 80 +12 +12 1022.5 963.2
06 20.08 З 1 н/о 1/0
[]
+11.8 +9.2 84 +12 +13 1022.8 963.5 +11.2 +17.7
07 20.08 З 2-3
{3}
н/о ясно +13.3 +9.5 78 +13 +16 1023.1 964.1
08 20.08 СЗ 1-2
{2}
н/о ясно +13.7 +9.8 77 +14 +21 1023.2 964.3
09 20.08 З 2 н/о 8/0
[]
+14.2 +10.1 76 +14 +19 1023.4 964.6
10 20.08 СЗ 1-2
{2}
н/о 9/0
[]
+15.2 +8.6 65 +16 +24 1023.8 965.1
11 20.08 З 2-3
{3}
н/о 6/0
[]
+16.3 +8.8 61 +16 +26 1023.4 965.0
12 20.08 З 2-3
{3}
н/о 5/0
[]
+16.3 +8.8 61 +16 +27 1023.3 964.9
13 20.08 З 3-4
{4}
н/о 1/0
[]
+17.2 +8.2 55 +17 +27 1023.2 965.0
14 20.08 З 3-5
{6}
н/о 8/0
[]
+16.6 +7.6 55 +16 +21 1023.5 965.1
15 20.08 З 3-5
{6}
н/о 9/0
[]
+17.1 +9.5 61 +17 +20 1024.0 965.7
16 20.08 З 3-4
{5}
н/о 5/0 2000 м
[]
+16.7 +8.8 60 +17 +19 1023.9 965.5
17 20.08 З 3-4
{5}
н/о 10/10 1500 м
[]
+16.3 +9.1 62 +16 +16 1024.4 965.9
18 20.08 З 2 н/о 9/0
[]
+15.7 +8.9 64 +16 +16 1025.0 966.4 +11.9 +17.4
19 20.08 ЮЗ 2-3
{4}
н/о 10/10 1410 м
[]
+14.7 +9.8 72 +14 +14 1025.8 967.0
20 20.08 ЮЗ 2-3
{3}
н/о 10/0
[]
+14.2 +9.4 73 +14 +14 1026.3 967.3
21 20.08 ЮЗ 2-4
{4}
н/о ясно +12.8 +8.8 77 +12 +12 1027.0 967.7
22 20.08 З 2-3
{4}
н/о 5/5 1440 м
[]
+12.9 +8.9 77 +12 +12 1027.2 967.9
23 20.08 ЮЗ 2-3
{3}
н/о ясно +13.6 +8.9 73 +13 +13 1027.2 968.0
00 21.08 З 3-3
{4}
н/о ясно +12.5 +8.9 79 +11 +11 1027.6 968.2
01 21.08 З 2-3
{3}
н/о ясно +12.2 +9.0 81 +11 +11 1027.9 968.4
02 21.08 СЗ 1-2
{2}
н/о ясно +12.0 +9.5 85 +12 +12 1028.0 968.5
03 21.08 З 1-2
{3}
н/о ясно +11.6 +9.6 88 +11 +11 1028.3 968.7
04 21.08 З 1-1
{2}
н/о ясно +12.1 +9.8 86 +12 +12 1028.3 968.8
05 21.08 штиль 0-1
{1}
н/о ясно +12.0 +9.9 87 +11 +12 1028.7 969.2
06 21.08 В 1 н/о ясно +13.2 +9.1 76 +13 +15 1028.6 969.3 +11.3 +15.7
07 21.08 ЮВ 3-3
{3}
н/о ясно +13.1 +9.8 80 +12 +15 1028.8 969.5
08 21.08 ЮВ 3-5
{5}
н/о ясно +15.1 +10.0 72 +14 +20 1028.5 969.6
09 21.08 ЮВ 2-4
{5}
н/о ясно +16.7 +8.3 58 +17 +26 1028.4 969.8
10 21.08 Ю 1-3
{4}
н/о ясно +17.8 +7.6 51 +19 +33 опасность
простуды
1028.1 969.7
11 21.08 Ю 2-6
{6}
н/о 1/1 1410 м
[]
+19.0 +7.2 46 +20 +32 1027.5 969.3
12 21.08 ЮВ 2-5
{6}
н/о ясно +19.5 +6.1 42 +21 +34 комфорт 1027.0 969.0
13 21.08 В 2-4
{6}
н/о 3/3 1500 м
[]
+21.2 +8.1 43 +22 +31 комфорт 1026.1 968.5
14 21.08 СВ 4-5
{6}
н/о 8/8 1500 м
[]
+20.3 +6.9 42 +21 +23 комфорт 1026.0 968.2
15 21.08 ЮВ 2-6
{6}
н/о 4/4 1500 м
[]
+20.6 +7.3 42 +22 +26 комфорт 1025.7 968.0
16 21.08 СВ 1-2
{6}
н/о 3/3 1500 м
[]
+20.0 +6.2 41 +22 +25 комфорт 1025.8 967.9
17 21.08 В 3-5
{7}
н/о ясно +19.8 +6.7 42 +21 +22 комфорт 1025.7 967.8
18 21.08 ЮВ 3 н/о ясно +18.5 +6.4 45 +19 +19 1025.9 967.7 +13.0 +21.5
19 21.08 ЮВ 2-3
{4}
н/о ясно +17.3 +6.7 50 +18 +18 1026.2 967.8
20 21.08 В 3-3
{4}
н/о 1/0
[]
+16.5 +7.2 54 +16 +16 1026.7 968.1
21 21.08 ЮВ 3-3
{4}
н/о ясно +16.0 +6.6 54 +16 +16 1026.8 968.1
22 21.08 ЮВ 3-4
{4}
н/о ясно +15.1 +6.9 58 +15 +15 1026.9 968.0
23 21.08 ЮВ 3-3
{4}
н/о ясно +13.9 +7.1 64 +13 +13 1026.9 967.8
00 22.08 ЮВ 2-2
{4}
н/о 1/0
[]
+13.9 +7.3 64 +13 +13 1027.0 967.9
01 22.08 ЮВ 2-3
{3}
н/о ясно +13.7 +7.3 65 +13 +13 1026.6 967.5
02 22.08 ЮВ 3-3
{4}
н/о ясно +13.4 +7.2 66 +12 +12 1026.4 967.2
03 22.08 ЮВ 3-3
{4}
н/о ясно +12.2 +7.2 71 +11 +11 1026.6 967.2
04 22.08 ЮВ 2-2
{3}
н/о ясно +12.6 +7.1 69 +12 +12 1026.6 967.2
05 22.08 В 2-2
{3}
н/о ясно +13.5 +6.6 63 +13 +13 1026.4 967.2
06 22.08 ЮВ 3 н/о ясно +13.7 +7.4 66 +13 +14 1026.7 967.6 +11.9 +18.5
07 22.08 В 2-3
{4}
н/о ясно +15.5 +7.0 57 +15 +19 1026.6 967.8
08 22.08 В 4-5
{5}
н/о ясно +17.4 +9.0 58 +17 +21 1026.3 967.9
09 22.08 ЮВ 3-4
{7}
н/о ясно +18.7 +9.3 54 +19 +27 1026.2 968.1
10 22.08 ЮВ 4-7
{8}
н/о ясно +19.8 +9.4 51 +21 +29 комфорт 1025.8 967.9
11 22.08 Ю 3-6
{7}
н/о ясно +21.2 +9.4 47 +23 +33 комфорт 1025.2 967.6
12 22.08 ЮВ 2-5
{8}
н/о ясно +21.1 +8.4 44 +22 +35 комфорт 1025.0 967.4
13 22.08 В 3-5
{7}
н/о ясно +21.6 +7.9 41 +23 +32 комфорт 1024.6 967.1
14 22.08 ЮВ 2-3
{5}
н/о ясно +21.9 +6.7 37 +23 +32 комфорт 1024.2 966.8
15 22.08 СЗ 2-4
{7}
н/о 1/0
[]
+22.4 +6.1 35 +23 +29 комфорт 1024.0 966.7
16 22.08 В 2-3
{4}
н/о ясно +22.4 +7.4 38 +23 +27 комфорт 1023.7 966.4
17 22.08 В 1-3
{8}
н/о 1/0
[]
+22.2 +7.5 39 +23 +24 комфорт 1023.6 966.3
18 22.08 В 2 н/о ясно +21.5 +6.7 38 +22 +22 комфорт 1024.0 966.5 +13.5 +23.6
19 22.08 ЮВ 2-2
{3}
н/о ясно +20.1 +8.3 47 +22 +22 комфорт 1024.7 966.9
20 22.08 ЮВ 2-7
{7}
н/о ясно +19.1 +8.0 49 +20 +20 1025.3 967.3
21 22.08 ЮВ 2-2
{7}
н/о ясно +18.8 +7.3 47 +20 +20 1025.3 967.2
22 22.08 ЮВ 3-3
{3}
н/о ясно +18.3 +7.3 49 +19 +19 1025.5 967.3
23 22.08 ЮВ 3-3
{3}
н/о ясно +17.3 +7.4 52 +17 +17 1025.9 967.5
00 23.08 ЮВ 2-3
{7}
н/о 1/0
[]
+16.8 +7.6 55 +17 +17 1025.8 967.3
01 23.08 ЮВ 3-4
{4}
н/о ясно +17.1 +7.6 54 +17 +17 1025.5 967.1
02 23.08 ЮВ 3-3
{4}
н/о ясно +17.2 +7.8 54 +17 +17 1025.4 967.0
03 23.08 СВ 1-2
{4}
н/о ясно +17.3 +7.9 54 +18 +18 1025.5 967.1
04 23.08 СВ 1-2
{2}
н/о ясно +16.2 +7.6 57 +17 +17 1025.6 967.0
05 23.08 В 1-2
{2}
н/о ясно +14.8 +7.5 62 +15 +16 1026.0 967.1
06 23.08 СВ 2 н/о ясно +15.7 +9.3 66 +16 +17 1026.0 967.3 +14.6 +21.3
07 23.08 В 3-4
{5}
н/о ясно +17.6 +10.3 62 +18 +20 1025.8 967.5
08 23.08 В 3-5
{5}
н/о ясно +18.8 +10.7 59 +20 +25 1025.6 967.6
09 23.08 В 4-5
{6}
н/о ясно +20.6 +9.5 49 +22 +28 комфорт 1025.3 967.6
10 23.08 ЮВ 5-8
{8}
н/о ясно +21.9 +8.2 41 +23 +29 комфорт 1024.9 967.5
11 23.08 В 4-7
{8}
н/о ясно +23.3 +8.5 39 +25 +33 комфорт 1024.1 967.0
12 23.08 ЮВ 4-7
{8}
н/о ясно +23.4 +7.1 35 +24 +33 комфорт 1023.7 966.6
13 23.08 СВ 4-8
{8}
н/о 1/0
[]
+24.2 +7.8 35 +25 +32 комфорт 1023.1 966.2
14 23.08 В 4-8
{8}
н/о ясно +24.4 +5.6 30 +24 +30 комфорт 1022.8 965.9
15 23.08 В 3-6
{8}
н/о ясно +24.6 +6.8 32 +25 +30 комфорт 1022.3 965.5
16 23.08 В 4-6
{8}
н/о ясно +24.7 +6.9 32 +25 +27 комфорт 1022.0 965.2
17 23.08 В 4-6
{7}
н/о ясно +24.3 +6.9 33 +24 +25 комфорт 1021.7 964.9
18 23.08 В 3 н/о ясно +23.0 +7.0 36 +24 +24 комфорт 1021.9 964.8 +15.8 +25.1
19 23.08 В 3-4
{4}
н/о ясно +21.5 +6.6 38 +22 +22 комфорт 1022.2 964.8
20 23.08 В 3-3
{3}
н/о ясно +20.1 +6.9 42 +21 +21 комфорт 1022.7 965.0
21 23.08 В 3-3
{4}
н/о ясно +20.0 +7.2 43 +21 +21 комфорт 1022.5 964.8
22 23.08 В 3-4
{4}
н/о ясно +19.2 +7.3 46 +20 +20 1022.3 964.5
23 23.08 ЮВ 3-5
{5}
н/о ясно +17.7 +7.7 52 +18 +18 1022.6 964.5
00 24.08 В 3-3
{5}
н/о ясно +17.8 +7.6 51 +18 +18 1022.2 964.1
01 24.08 ЮВ 3-4
{4}
н/о ясно +17.9 +7.6 51 +18 +18 1021.9 963.9
02 24.08 ЮВ 3-4
{4}
н/о ясно +16.9 +7.7 55 +17 +17 1022.0 963.8
03 24.08 В 2-3
{4}
н/о ясно +16.4 +7.7 56 +17 +17 1021.8 963.5
04 24.08 В 4-5
{5}
н/о ясно +15.8 +7.6 58 +15 +15 1021.9 963.5
05 24.08 В 3-4
{4}
н/о ясно +15.8 +8.1 60 +15 +15 1022.3 963.8
06 24.08 ЮВ 3 н/о ясно +17.2 +9.5 61 +17 +18 1021.8 963.7 +15.0 +23.1
07 24.08 В 3-5
{5}
н/о ясно +18.7 +10.3 58 +19 +22 1021.7 963.9
08 24.08 В 3-5
{5}
н/о ясно +20.6 +12.0 58 +23 +28 комфорт 1021.3 963.9
09 24.08 ЮВ 4-6
{6}
н/о ясно +22.1 +12.5 54 +25 +31 комфорт 1021.1 964.0
10 24.08 ЮВ 3-5
{8}
н/о ясно +23.3 +11.6 48 +26 +35 жарко 1020.5 963.6
11 24.08 В 4-8
{8}
н/о ясно +24.5 +11.0 43 +26 +35 жарко 1019.8 963.2
12 24.08 В 4-6
{8}
н/о ясно +24.7 +8.1 35 +25 +34 комфорт 1019.6 963.0
13 24.08 В 5-7
{12}
н/о ясно +25.6 +6.8 30 +25 +32 комфорт 1019.2 962.7
14 24.08 В 2-5
{7}
н/о ясно +26.3 +7.2 30 +26 +35 жарко 1018.6 962.3
15 24.08 ЮВ 4-6
{12}
н/о ясно +26.4 +8.7 33 +27 +31 жарко 1018.1 961.9
16 24.08 В 3-4
{7}
н/о ясно +25.8 +7.5 31 +26 +28 жарко 1018.1 961.7
17 24.08 В 3-6
{6}
н/о 1/0
[]
+25.5 +8.4 34 +26 +27 жарко 1017.9 961.5
18 24.08 ЮВ 4 н/о ясно +23.7 +9.5 41 +25 +25 комфорт 1018.2 961.5 +17.3 +26.7
19 24.08 ЮВ 2-3
{5}
н/о ясно +22.3 +9.7 45 +24 +24 комфорт 1018.7 961.7
20 24.08 В 3-5
{5}
н/о ясно +21.5 +9.5 46 +23 +23 комфорт 1019.0 961.8
21 24.08 В 2-2
{5}
н/о ясно +20.9 +9.9 49 +23 +23 комфорт 1018.8 961.5
22 24.08 ЮВ 2-3
{5}
н/о ясно +20.4 +10.0 51 +23 +23 комфорт 1019.0 961.6
23 24.08 ЮВ 2-2
{3}
н/о ясно +21.1 +10.8 52 +23 +23 комфорт 1018.7 961.5
00 25.08 В 2-2
{5}
н/о 3/3 1410 м
[]
+20.2 +10.7 54 +22 +22 комфорт 1018.6 961.2
01 25.08 СВ 2-2
{3}
н/о ясно +21.4 +11.3 53 +23 +23 комфорт 1018.2 961.1
02 25.08 СВ 1-2
{2}
н/о ясно +19.6 +9.8 53 +22 +22 комфорт 1018.5 961.0
03 25.08 СВ 2-2
{3}
н/о ясно +19.8 +10.3 54 +22 +22 комфорт 1018.3 960.9
04 25.08 В 1-2
{2}
н/о ясно +19.4 +10.3 56 +22 +22 комфорт 1018.4 960.9
05 25.08 В 2-2
{2}
н/о ясно +19.1 +10.3 57 +21 +21 комфорт 1018.8 961.2
06 25.08 СВ 1 н/о ясно +20.2 +12.7 62 +23 +24 комфорт 1018.3 961.0 +18.7 +23.8
07 25.08 Ю 1-2
{2}
н/о 1/1 1410 м
[]
+19.6 +13.0 66 +22 +25 комфорт 1018.7 961.3
08 25.08 ЮВ 1-2
{3}
н/о 4/4 1350 м
[]
+22.6 +14.6 61 +26 +30 жарко 1018.4 961.6
09 25.08 С 2-3
{3}
н/о ясно +23.5 +14.9 58 +26 +35 жарко 1018.3 961.7
10 25.08 С 3-4
{4}
н/о ясно +24.8 +15.6 57 +28 +37 жарко 1018.1 961.7
11 25.08 СЗ 3-4
{5}
н/о 8/8 1200 м
[]
+25.0 +16.4 59 +28 +31 жарко 1017.9 961.6
12 25.08 В 2-3
{5}
н/о 5/5 1500 м
[]
+25.4 +15.1 53 +28 +35 жарко 1017.7 961.4

 

Местоположение метеостанции Аэропорт Франкфурт-Хан (Германия): широта 49.95 долгота 7.27 высота над уровнем моря 503 м.

В архиве по умолчанию представлена погода в Аэропорту Франкфурт-Хан за последнюю неделю. Архивные данные за месяц целиком и за предыдущие месяцы, начиная с января 2011 года, Вы можете получить, выбрав интересующий диапазон дат из раскрывающегося списка и нажав кнопку "Ввод!".


*Определитесь, кто Вы:
робот инопланетянин человек

Внимание! Время в таблицах - всемирное. Для получения местного времени необходимо прибавить поправку, которая равна 1 ч.

Смотрите также архив погоды в соседних городах и на ближайших метеорологических станциях:

Погода в Дойзельбахе (Германия) (25 км)
Погода в Идар-Оберштайне (Германия) (28 км)
Погода на Базе ВВС Buechel (Германия) (28 км)
Погода в Трире (Германия) (48 км)
Погода в Гайзенхайме (Германия) (49 км)
Погода в Кобленце (Германия) (52 км)
Погода в Андернахе (Германия) (54 км)
Погода в Толае (Германия) (55 км)
Погода в Нюрбург-Барвайлере (Германия) (55 км)
Погода в Саарбрюккене (Германия) (82 км)

Пояснения к столбцам:

Ветер - указаны скорость ветра в м/с - средняя за 10 мин, порывы в срок и между сроками (в фигурных скобках) и направление, откуда дует ветер: С - северный, СВ - северо-восточный, В - восточный, ЮВ - юго-восточный, Ю - южный, ЮЗ - юго-западный, З - западный, СЗ - северо-западный.
Видимость - горизонтальная дальность видимости в метрах или километрах. При видимости от 1 до 10 км при отсутствии осадков обычно наблюдается дымка, при ухудшении видимости до 1 км и менее - туман. В сухую погоду видимость может ухудшаться дымом, пылью или мглою.
Явления - указаны атмосферные явления, наблюдавшиеся в срок или в последний час перед сроком; фигурными скобками обозначены явления, наблюдавшиеся между сроками (за 1-3 часа до срока); квадратными скобками обозначены град или гололедные отложения с указанием их диаметра в мм.
Облачность - указаны через наклонную черту общая и нижняя облачность в баллах и высота нижней границы облаков в метрах; квадратными скобками обозначены формы облаков: Ci - перистые, Cs - перисто-слоистые, Cc - перисто-кучевые, Ac - высококучевые, As - высокослоистые, Sc - слоисто-кучевые, Ns - слоисто-дождевые, Cu - кучевые, Cb - кучево-дождевые. Подробнее классификацию облаков см. в Атласе облаков (PDF).
T - Температура воздуха - температура, измеренная на высоте 2 м над землей.
Td - Температура точки росы - температура, при понижении до которой содержащийся в воздухе водяной пар достигнет насыщения.
f - Относительная влажность воздуха - влажноcть воздуха, измеренная на высоте 2 м над землей.
Te - Эффективная температура - температура, которую ощущает одетый по сезону человек в тени. Характеристика душности погоды. При расчете учитывается влияние влажности воздуха и скорости ветра на теплоощущения человека.
Tes - Эффективная температура на солнце - температура, которую ощущает человек, с поправкой на солнечный нагрев. Характеристика знойности погоды. Зависит от высоты солнца над горизонтом, облачности и скорости ветра. Ночью, в пасмурную погоду, а также при ветре 12 м/с и более поправка равна нулю.
P - Атмосферное давление - приведенное к уровню моря атмосферное давление.
Po - Атмосферное давление - измеренное на уровне метеостанции атмосферное давление.
Tmin - Минимальная температура - минимум температуры воздуха на высоте 2 м над землей.
Tmax - Максимальная температура - максимум температуры воздуха на высоте 2 м над землей.
R - Количество осадков - Количество выпавших осадков за период времени, мм. При наведении курсора мыши на число - период времени, за который выпало указанное количество осадков.
R24 - Количество осадков - Количество выпавших осадков за 24 часа, мм.
S - Снежный покров - Высота снежного покрова, см. При наведении курсора мыши на число - состояние снежного покрова и степень покрытия местности в баллах.